Train No Train Name From To Distance Stops avg_speed (km/hr)
11110 Lucknow - Jhansi Intercity Express Lucknow Jhansi Junction 293 9 50
A Train's "Departure" Station, "Arrival" Station and "Distance" may vary. Although we have verified some of this data from enquiry.indianrail.gov.in
Train No Start Date (yyyy-mm-dd) Status Delay Time Source
11110 2017-01-01 Late 33 hours 16 minutes Source
11110 2017-01-02 Late 56 hours 53 minutes Source
11110 2017-01-03 Late 44 hours 47 minutes Source
11110 2017-01-04 Late 06 hours 25 minutes Source
11110 2017-01-06 Late 13 hours 03 minutes Source
11110 2017-01-07 Late 02 hours 57 minutes Source
11110 2017-01-09 Late 18 hours 44 minutes Source
11110 2017-01-11 Late 00 hours 54 minutes Source
11110 2017-01-12 Late 04 hours 55 minutes Source
11110 2017-01-15 Late 33 hours 22 minutes Source
11110 2017-01-17 Late 33 hours 46 minutes Source
11110 2017-01-20 Late 26 hours 10 minutes Source
11110 2017-01-25 Late 00 hours 54 minutes Source
11110 2017-01-29 Late 33 hours 23 minutes Source
11110 2017-01-31 Late 00 hours 50 minutes Source
11110 2017-02-03 Late 00 hours 45 minutes Source
11110 2017-02-06 Late 01 hours 36 minutes Source
11110 2017-02-07 Late 26 hours 47 minutes Source
11110 2017-02-09 Late 01 hours 40 minutes Source
11110 2017-02-10 Late 01 hours 40 minutes Source
11110 2017-02-12 Late 00 hours 29 minutes Source
11110 2017-02-14 Late 45 hours 44 minutes Source
11110 2017-02-18 Late 38 hours 45 minutes Source
11110 2017-02-22 Late 44 hours 40 minutes Source
11110 2017-02-24 Late 01 hours 50 minutes Source
11110 2017-02-25 Late 02 hours 58 minutes Source
11110 2017-02-26 Late 01 hours 14 minutes Source
11110 2017-02-27 Late 01 hours 55 minutes Source
11110 2017-03-01 Late 01 hours 01 minutes Source
11110 2017-03-03 Late 51 hours 16 minutes Source
11110 2017-03-04 Late 00 hours 40 minutes Source
11110 2017-03-06 Late 02 hours 03 minutes Source
11110 2017-03-09 Late 02 hours 04 minutes Source
11110 2017-03-14 Late 57 hours 41 minutes Source
11110 2017-03-16 Late 33 hours 25 minutes Source
11110 2017-03-20 Late 01 hours 05 minutes Source
11110 2017-03-22 Late 05 hours 59 minutes Source
11110 2017-03-27 Late 38 hours 25 minutes Source
11110 2017-03-30 Late 39 hours 24 minutes Source
11110 2017-04-02 Late 51 hours 02 minutes Source
11110 2017-04-06 Late 25 hours 09 minutes Source
11110 2017-04-16 Late 02 hours 27 minutes Source
11110 2017-04-20 Late 18 hours 10 minutes Source
11110 2017-04-23 Late 34 hours 18 minutes Source
Page 1 of 1, showing 44 records out of 44 total